• în România
  • Lista ţărilor
  • Pe 7 zile
  • Temperatura apei
  • Hartă satelitară
  • Meteo pe hartă
  • Widget-uri
  • user-avatar
    Intrare

    Meteo pe oră la Skraby

    Astăzi, 17 August, Vineri

    Timp Temperatura Precipitaţii Vânt Presiune Umiditate
    00:00 +14°C° 0 mm 1 m/s 750 mmHg 95%
    01:00 +13°C° 0 mm 1 m/s 750 mmHg 95%
    02:00 +13°C° 0 mm 1 m/s 751 mmHg 96%
    03:00 +12°C° 0 mm 1 m/s 751 mmHg 96%
    04:00 +12°C° 0 mm 1 m/s 751 mmHg 96%
    05:00 +12°C° 0 mm 1 m/s 751 mmHg 97%
    06:00 +14°C° 0 mm 1 m/s 752 mmHg 89%
    07:00 +16°C° 0 mm 2 m/s 752 mmHg 81%
    08:00 +18°C° 0 mm 2 m/s 752 mmHg 73%
    09:00 +20°C° 0 mm 2 m/s 752 mmHg 67%
    10:00 +21°C° 0 mm 2 m/s 752 mmHg 60%
    11:00 +24°C° 0 mm 2 m/s 752 mmHg 54%
    12:00 +24°C° 0 mm 2 m/s 752 mmHg 52%
    13:00 +25°C° 0 mm 2 m/s 751 mmHg 50%
    14:00 +26°C° 0 mm 2 m/s 751 mmHg 49%
    15:00 +25°C° 0 mm 2 m/s 751 mmHg 52%
    16:00 +25°C° 0 mm 2 m/s 751 mmHg 55%
    17:00 +25°C° 0 mm 2 m/s 751 mmHg 58%
    18:00 +23°C° 0 mm 2 m/s 751 mmHg 65%
    19:00 +20°C° 0 mm 2 m/s 750 mmHg 72%
    20:00 +18°C° 0 mm 2 m/s 750 mmHg 79%
    21:00 +17°C° 0 mm 2 m/s 750 mmHg 81%
    22:00 +16°C° 0 mm 2 m/s 751 mmHg 84%
    23:00 +15°C° 0 mm 2 m/s 751 mmHg 86%

    Mâine, 18 August, Sâmbătă

    Timp Temperatura Precipitaţii Vânt Presiune Umiditate
    00:00 +15°C° 0 mm 2 m/s 751 mmHg 87%
    01:00 +14°C° 0 mm 2 m/s 751 mmHg 89%
    02:00 +14°C° 0 mm 2 m/s 751 mmHg 90%
    03:00 +14°C° 0 mm 2 m/s 751 mmHg 91%
    04:00 +14°C° 0 mm 2 m/s 751 mmHg 92%
    05:00 +13°C° 0 mm 2 m/s 751 mmHg 93%
    06:00 +15°C° 0 mm 2 m/s 751 mmHg 85%
    07:00 +17°C° 0 mm 2 m/s 751 mmHg 77%
    08:00 +19°C° 0 mm 2 m/s 751 mmHg 70%
    09:00 +21°C° 0 mm 2 m/s 751 mmHg 64%
    10:00 +24°C° 0 mm 2 m/s 751 mmHg 57%
    11:00 +25°C° 0 mm 2 m/s 751 mmHg 51%
    12:00 +26°C° 0 mm 2 m/s 751 mmHg 49%
    13:00 +26°C° 0 mm 3 m/s 750 mmHg 48%
    14:00 +27°C° 0 mm 3 m/s 750 mmHg 46%
    15:00 +27°C° 0 mm 2 m/s 750 mmHg 49%
    16:00 +26°C° 0 mm 2 m/s 750 mmHg 53%
    17:00 +26°C° 0 mm 2 m/s 749 mmHg 56%
    18:00 +24°C° 0 mm 2 m/s 749 mmHg 64%
    19:00 +21°C° 0 mm 2 m/s 749 mmHg 72%
    20:00 +19°C° 0 mm 2 m/s 749 mmHg 81%
    21:00 +18°C° 0 mm 2 m/s 749 mmHg 83%
    22:00 +17°C° 0 mm 2 m/s 749 mmHg 85%
    23:00 +17°C° 0 mm 2 m/s 749 mmHg 88%

    Poimâine, 19 August, Duminică

    Timp Temperatura Precipitaţii Vânt Presiune Umiditate
    00:00 +16°C° 0 mm 2 m/s 749 mmHg 88%
    01:00 +16°C° 0 mm 2 m/s 749 mmHg 88%
    02:00 +16°C° 0 mm 2 m/s 749 mmHg 89%
    03:00 +16°C° 0,1 mm 2 m/s 749 mmHg 88%
    04:00 +16°C° 0,1 mm 2 m/s 749 mmHg 88%
    05:00 +16°C° 0,1 mm 3 m/s 748 mmHg 88%
    06:00 +17°C° 0 mm 3 m/s 748 mmHg 84%
    07:00 +19°C° 0 mm 3 m/s 748 mmHg 80%
    08:00 +20°C° 0 mm 3 m/s 748 mmHg 76%
    09:00 +22°C° 0 mm 3 m/s 748 mmHg 71%
    10:00 +24°C° 0 mm 3 m/s 748 mmHg 67%
    11:00 +26°C° 0 mm 4 m/s 747 mmHg 62%
    12:00 +26°C° 0,6 mm 4 m/s 747 mmHg 67%
    13:00 +25°C° 0,6 mm 4 m/s 747 mmHg 72%
    14:00 +25°C° 0,6 mm 4 m/s 747 mmHg 77%
    15:00 +25°C° 0,6 mm 3 m/s 746 mmHg 79%
    16:00 +24°C° 0,6 mm 3 m/s 746 mmHg 82%
    17:00 +24°C° 0,6 mm 2 m/s 746 mmHg 85%
    18:00 +23°C° 0,3 mm 2 m/s 746 mmHg 88%
    19:00 +20°C° 0,3 mm 2 m/s 746 mmHg 91%
    20:00 +19°C° 0,3 mm 2 m/s 746 mmHg 94%
    21:00 +19°C° 0 mm 1 m/s 746 mmHg 94%
    22:00 +18°C° 0 mm 1 m/s 746 mmHg 93%
    23:00 +18°C° 0 mm 1 m/s 746 mmHg 92%

    20 August, Luni

    Timp Temperatura Precipitaţii Vânt Presiune Umiditate
    00:00 +16°C° 0 mm 1 m/s 746 mmHg 92%
    01:00 +16°C° 0 mm 1 m/s 746 mmHg 92%
    02:00 +15°C° 0 mm 1 m/s 746 mmHg 92%
    03:00 +15°C° 0 mm 1 m/s 746 mmHg 93%
    04:00 +15°C° 0 mm 1 m/s 746 mmHg 94%
    05:00 +15°C° 0 mm 1 m/s 746 mmHg 95%
    06:00 +16°C° 0 mm 1 m/s 746 mmHg 94%
    07:00 +18°C° 0 mm 1 m/s 746 mmHg 92%
    08:00 +18°C° 0 mm 2 m/s 746 mmHg 91%
    09:00 +19°C° 0,3 mm 2 m/s 746 mmHg 88%
    10:00 +20°C° 0,3 mm 2 m/s 746 mmHg 85%
    11:00 +21°C° 0,3 mm 3 m/s 746 mmHg 82%
    12:00 +21°C° 0,3 mm 3 m/s 746 mmHg 78%
    13:00 +22°C° 0,3 mm 3 m/s 746 mmHg 74%
    14:00 +22°C° 0,3 mm 3 m/s 746 mmHg 70%
    15:00 +22°C° 0,2 mm 3 m/s 746 mmHg 71%
    16:00 +23°C° 0,2 mm 2 m/s 746 mmHg 73%
    17:00 +23°C° 0,2 mm 2 m/s 746 mmHg 74%
    18:00 +20°C° 0,1 mm 2 m/s 746 mmHg 79%
    19:00 +19°C° 0,1 mm 1 m/s 746 mmHg 85%
    20:00 +18°C° 0,1 mm 1 m/s 746 mmHg 91%
    21:00 +18°C° 0 mm 1 m/s 746 mmHg 91%
    22:00 +18°C° 0 mm 1 m/s 746 mmHg 91%
    23:00 +16°C° 0 mm 0 m/s 746 mmHg 92%

    21 August, Marţi

    Timp Temperatura Precipitaţii Vânt Presiune Umiditate
    00:00 +15°C° 0,1 mm 0 m/s 747 mmHg 93%
    01:00 +15°C° 0,1 mm 0 m/s 747 mmHg 94%
    02:00 +15°C° 0,1 mm 0 m/s 747 mmHg 95%
    03:00 +16°C° 0 mm 1 m/s 747 mmHg 96%
    04:00 +16°C° 0 mm 1 m/s 747 mmHg 96%
    05:00 +15°C° 0 mm 1 m/s 747 mmHg 97%
    06:00 +16°C° 0 mm 1 m/s 747 mmHg 96%
    07:00 +18°C° 0 mm 1 m/s 747 mmHg 94%
    08:00 +19°C° 0 mm 1 m/s 747 mmHg 92%
    09:00 +19°C° 0,1 mm 2 m/s 747 mmHg 86%
    10:00 +20°C° 0,1 mm 2 m/s 747 mmHg 81%
    11:00 +20°C° 0,1 mm 2 m/s 747 mmHg 75%
    12:00 +21°C° 0 mm 2 m/s 746 mmHg 69%
    13:00 +22°C° 0 mm 3 m/s 746 mmHg 63%
    14:00 +24°C° 0 mm 3 m/s 746 mmHg 57%
    15:00 +24°C° 0,1 mm 2 m/s 745 mmHg 62%
    16:00 +24°C° 0,1 mm 2 m/s 745 mmHg 67%
    17:00 +23°C° 0,1 mm 2 m/s 745 mmHg 72%
    18:00 +21°C° 0,7 mm 2 m/s 745 mmHg 80%
    19:00 +20°C° 0,7 mm 2 m/s 744 mmHg 87%
    20:00 +18°C° 0,7 mm 2 m/s 744 mmHg 94%
    21:00 +18°C° 0,3 mm 2 m/s 744 mmHg 95%
    22:00 +18°C° 0,3 mm 2 m/s 744 mmHg 96%
    23:00 +18°C° 0,3 mm 2 m/s 743 mmHg 97%

    22 August, Miercuri

    Timp Temperatura Precipitaţii Vânt Presiune Umiditate
    00:00 +17°C° 0,1 mm 2 m/s 743 mmHg 97%
    01:00 +17°C° 0,1 mm 2 m/s 743 mmHg 97%
    02:00 +17°C° 0,1 mm 2 m/s 743 mmHg 97%
    03:00 +17°C° 0 mm 2 m/s 743 mmHg 97%
    04:00 +17°C° 0 mm 2 m/s 743 mmHg 98%
    05:00 +17°C° 0 mm 2 m/s 743 mmHg 98%
    06:00 +17°C° 0 mm 2 m/s 743 mmHg 97%
    07:00 +17°C° 0 mm 3 m/s 743 mmHg 96%
    08:00 +18°C° 0 mm 3 m/s 743 mmHg 95%
    09:00 +18°C° 0,1 mm 3 m/s 743 mmHg 93%
    10:00 +18°C° 0,1 mm 3 m/s 744 mmHg 91%
    11:00 +19°C° 0,1 mm 3 m/s 744 mmHg 89%
    12:00 +20°C° 0,1 mm 3 m/s 744 mmHg 80%
    13:00 +21°C° 0,1 mm 3 m/s 744 mmHg 71%
    14:00 +24°C° 0,1 mm 3 m/s 744 mmHg 62%
    15:00 +24°C° 0 mm 3 m/s 743 mmHg 63%
    16:00 +24°C° 0 mm 3 m/s 743 mmHg 64%
    17:00 +24°C° 0 mm 2 m/s 743 mmHg 65%
    18:00 +21°C° 0 mm 2 m/s 743 mmHg 72%
    19:00 +20°C° 0 mm 2 m/s 743 mmHg 80%
    20:00 +18°C° 0 mm 2 m/s 743 mmHg 87%
    21:00 +18°C° 0,1 mm 2 m/s 743 mmHg 88%
    22:00 +18°C° 0,1 mm 3 m/s 743 mmHg 89%
    23:00 +18°C° 0,1 mm 3 m/s 743 mmHg 90%
    Arată mai mult